When you browse on this site, cookies collect data to enhance your experience and personalize the content and advertising you see.
Visit our Privacy Policy to learn more. By continuing to use the site, you agree to this use of cookies and data.
  • In Romania
  • List of Countries
  • For 7 days
  • Water Temperature
  • Satellite Maps
  • Weather Map
  • Weather Widgets
  • user-avatar
    Login

    Hourly Weather Zelazow

    Today, 19 May, Sunday

    Time Temperature Precipitation Wind Pressure Humidity
    00:00 +12°C° 0 mm 1 mps 733 mmHg 85%
    01:00 +12°C° 0 mm 1 mps 733 mmHg 85%
    02:00 +12°C° 0.1 mm 1 mps 733 mmHg 86%
    03:00 +12°C° 0.1 mm 1 mps 733 mmHg 86%
    04:00 +12°C° 0.1 mm 1 mps 732 mmHg 87%
    05:00 +13°C° 0 mm 1 mps 732 mmHg 83%
    06:00 +15°C° 0 mm 1 mps 732 mmHg 78%
    07:00 +18°C° 0 mm 1 mps 732 mmHg 72%
    08:00 +20°C° 0 mm 1 mps 732 mmHg 68%
    09:00 +20°C° 0 mm 2 mps 732 mmHg 64%
    10:00 +21°C° 0 mm 2 mps 732 mmHg 60%
    11:00 +23°C° 0 mm 2 mps 732 mmHg 58%
    12:00 +24°C° 0 mm 3 mps 732 mmHg 56%
    13:00 +24°C° 0 mm 3 mps 732 mmHg 56%
    14:00 +24°C° 0.4 mm 3 mps 731 mmHg 60%
    15:00 +22°C° 0.4 mm 3 mps 731 mmHg 64%
    16:00 +22°C° 0.4 mm 3 mps 731 mmHg 68%
    17:00 +21°C° 0.3 mm 3 mps 731 mmHg 72%
    18:00 +20°C° 0.3 mm 2 mps 731 mmHg 77%
    19:00 +18°C° 0.3 mm 2 mps 730 mmHg 81%
    20:00 +18°C° 0 mm 1 mps 730 mmHg 83%
    21:00 +16°C° 0 mm 1 mps 731 mmHg 85%
    22:00 +15°C° 0 mm 1 mps 731 mmHg 87%
    23:00 +14°C° 0 mm 1 mps 730 mmHg 87%

    Tomorrow, 20 May, Monday

    Time Temperature Precipitation Wind Pressure Humidity
    00:00 +14°C° 0 mm 1 mps 730 mmHg 88%
    01:00 +13°C° 0 mm 1 mps 730 mmHg 88%
    02:00 +13°C° 0 mm 1 mps 730 mmHg 88%
    03:00 +13°C° 0 mm 1 mps 730 mmHg 88%
    04:00 +12°C° 0 mm 0 mps 730 mmHg 88%
    05:00 +13°C° 0.3 mm 0 mps 730 mmHg 87%
    06:00 +14°C° 0.3 mm 0 mps 729 mmHg 87%
    07:00 +14°C° 0.3 mm 0 mps 729 mmHg 86%
    08:00 +15°C° 0.5 mm 0 mps 729 mmHg 87%
    09:00 +15°C° 0.5 mm 0 mps 729 mmHg 87%
    10:00 +15°C° 0.5 mm 0 mps 729 mmHg 87%
    11:00 +18°C° 0 mm 1 mps 729 mmHg 82%
    12:00 +19°C° 0 mm 2 mps 729 mmHg 77%
    13:00 +20°C° 0 mm 2 mps 729 mmHg 72%
    14:00 +20°C° 0.1 mm 3 mps 729 mmHg 70%
    15:00 +21°C° 0.1 mm 3 mps 729 mmHg 69%
    16:00 +21°C° 0.1 mm 3 mps 729 mmHg 68%
    17:00 +20°C° 0.2 mm 3 mps 729 mmHg 73%
    18:00 +19°C° 0.2 mm 2 mps 729 mmHg 79%
    19:00 +17°C° 0.2 mm 2 mps 729 mmHg 84%
    20:00 +16°C° 0 mm 2 mps 729 mmHg 87%
    21:00 +15°C° 0 mm 2 mps 729 mmHg 89%
    22:00 +14°C° 0 mm 2 mps 730 mmHg 91%
    23:00 +13°C° 0 mm 2 mps 730 mmHg 92%

    Day after tomorrow, 21 May, Tuesday

    Time Temperature Precipitation Wind Pressure Humidity
    00:00 +13°C° 0 mm 2 mps 730 mmHg 92%
    01:00 +12°C° 0 mm 2 mps 730 mmHg 92%
    02:00 +12°C° 0 mm 2 mps 730 mmHg 92%
    03:00 +12°C° 0 mm 2 mps 730 mmHg 93%
    04:00 +10°C° 0 mm 2 mps 730 mmHg 93%
    05:00 +13°C° 0 mm 2 mps 730 mmHg 89%
    06:00 +14°C° 0 mm 2 mps 731 mmHg 85%
    07:00 +15°C° 0 mm 2 mps 731 mmHg 81%
    08:00 +17°C° 0 mm 2 mps 731 mmHg 75%
    09:00 +18°C° 0 mm 2 mps 731 mmHg 70%
    10:00 +20°C° 0 mm 1 mps 731 mmHg 64%
    11:00 +21°C° 0 mm 1 mps 731 mmHg 62%
    12:00 +22°C° 0 mm 1 mps 731 mmHg 59%
    13:00 +23°C° 0 mm 1 mps 731 mmHg 56%
    14:00 +23°C° 0 mm 1 mps 731 mmHg 58%
    15:00 +22°C° 0 mm 1 mps 731 mmHg 59%
    16:00 +22°C° 0 mm 1 mps 731 mmHg 61%
    17:00 +21°C° 0 mm 1 mps 731 mmHg 66%
    18:00 +20°C° 0 mm 1 mps 731 mmHg 72%
    19:00 +19°C° 0 mm 1 mps 731 mmHg 77%
    20:00 +17°C° 0.5 mm 2 mps 731 mmHg 81%
    21:00 +16°C° 0.5 mm 2 mps 731 mmHg 85%
    22:00 +14°C° 0.5 mm 3 mps 731 mmHg 89%
    23:00 +14°C° 1.2 mm 3 mps 731 mmHg 90%

    22 May, Wednesday

    Time Temperature Precipitation Wind Pressure Humidity
    00:00 +14°C° 1.2 mm 4 mps 731 mmHg 92%
    01:00 +14°C° 1.2 mm 5 mps 731 mmHg 94%
    02:00 +14°C° 0.5 mm 5 mps 731 mmHg 94%
    03:00 +14°C° 0.5 mm 6 mps 731 mmHg 94%
    04:00 +14°C° 0.5 mm 6 mps 731 mmHg 94%
    05:00 +14°C° 0.7 mm 6 mps 731 mmHg 93%
    06:00 +15°C° 0.7 mm 7 mps 732 mmHg 93%
    07:00 +15°C° 0.7 mm 7 mps 732 mmHg 92%
    08:00 +15°C° 0.3 mm 7 mps 732 mmHg 92%
    09:00 +15°C° 0.3 mm 7 mps 732 mmHg 92%
    10:00 +15°C° 0.3 mm 7 mps 733 mmHg 92%
    11:00 +15°C° 0.3 mm 7 mps 733 mmHg 91%
    12:00 +15°C° 0.3 mm 7 mps 733 mmHg 89%
    13:00 +15°C° 0.3 mm 7 mps 733 mmHg 88%
    14:00 +15°C° 0.3 mm 7 mps 733 mmHg 89%
    15:00 +15°C° 0.3 mm 7 mps 733 mmHg 91%
    16:00 +15°C° 0.3 mm 7 mps 734 mmHg 92%
    17:00 +13°C° 0.2 mm 8 mps 734 mmHg 92%
    18:00 +12°C° 0.2 mm 8 mps 734 mmHg 92%
    19:00 +12°C° 0.2 mm 8 mps 734 mmHg 93%
    20:00 +12°C° 0.1 mm 8 mps 735 mmHg 93%
    21:00 +12°C° 0.1 mm 8 mps 735 mmHg 93%
    22:00 +11°C° 0.1 mm 7 mps 736 mmHg 93%
    23:00 +11°C° 0.1 mm 8 mps 736 mmHg 94%

    23 May, Thursday

    Time Temperature Precipitation Wind Pressure Humidity
    00:00 +11°C° 0.1 mm 8 mps 736 mmHg 94%
    01:00 +11°C° 0.1 mm 8 mps 736 mmHg 94%
    02:00 +10°C° 0.1 mm 8 mps 737 mmHg 93%
    03:00 +9°C° 0.1 mm 8 mps 737 mmHg 92%
    04:00 +7°C° 0.1 mm 8 mps 738 mmHg 91%
    05:00 +6°C° 0 mm 8 mps 738 mmHg 89%
    06:00 +6°C° 0 mm 8 mps 739 mmHg 88%
    07:00 +6°C° 0 mm 8 mps 739 mmHg 86%
    08:00 +6°C° 0 mm 7 mps 740 mmHg 84%
    09:00 +7°C° 0 mm 6 mps 740 mmHg 82%
    10:00 +7°C° 0 mm 6 mps 740 mmHg 80%
    11:00 +9°C° 0 mm 5 mps 741 mmHg 74%
    12:00 +10°C° 0 mm 5 mps 741 mmHg 69%
    13:00 +13°C° 0 mm 4 mps 741 mmHg 64%
    14:00 +14°C° 0 mm 5 mps 740 mmHg 61%
    15:00 +15°C° 0 mm 5 mps 740 mmHg 58%
    16:00 +16°C° 0 mm 5 mps 740 mmHg 55%
    17:00 +15°C° 0 mm 5 mps 740 mmHg 61%
    18:00 +14°C° 0 mm 4 mps 740 mmHg 67%
    19:00 +13°C° 0 mm 3 mps 740 mmHg 73%
    20:00 +13°C° 0 mm 2 mps 740 mmHg 74%
    21:00 +12°C° 0 mm 2 mps 740 mmHg 75%
    22:00 +10°C° 0 mm 2 mps 740 mmHg 76%
    23:00 +9°C° 0 mm 2 mps 740 mmHg 78%

    24 May, Friday

    Time Temperature Precipitation Wind Pressure Humidity
    00:00 +9°C° 0 mm 2 mps 740 mmHg 81%
    01:00 +8°C° 0 mm 2 mps 740 mmHg 83%
    02:00 +8°C° 0 mm 2 mps 740 mmHg 85%
    03:00 +8°C° 0 mm 2 mps 740 mmHg 87%
    04:00 +7°C° 0 mm 2 mps 740 mmHg 90%
    05:00 +9°C° 0 mm 2 mps 739 mmHg 84%
    06:00 +12°C° 0 mm 2 mps 739 mmHg 79%
    07:00 +14°C° 0 mm 2 mps 739 mmHg 74%
    08:00 +15°C° 0 mm 2 mps 739 mmHg 68%
    09:00 +16°C° 0 mm 2 mps 739 mmHg 61%
    10:00 +18°C° 0 mm 2 mps 739 mmHg 55%
    11:00 +18°C° 0 mm 2 mps 738 mmHg 53%
    12:00 +19°C° 0 mm 2 mps 738 mmHg 52%
    13:00 +21°C° 0 mm 1 mps 737 mmHg 50%
    14:00 +20°C° 0 mm 1 mps 737 mmHg 52%
    15:00 +20°C° 0 mm 1 mps 737 mmHg 54%
    16:00 +20°C° 0 mm 1 mps 736 mmHg 56%
    17:00 +19°C° 0 mm 1 mps 736 mmHg 61%
    18:00 +18°C° 0 mm 1 mps 735 mmHg 66%
    19:00 +16°C° 0 mm 1 mps 735 mmHg 71%
    20:00 +15°C° 0 mm 1 mps 735 mmHg 73%
    21:00 +14°C° 0 mm 1 mps 735 mmHg 76%
    22:00 +13°C° 0 mm 2 mps 735 mmHg 78%
    23:00 +13°C° 0 mm 2 mps 735 mmHg 80%
    Show more